Wind_Speed
37 39 40 42 46 43 35 32 29 29 29 29 30 29 28 26 24 23 20 19 17 17 16 15 17 15 16 14 14 15 16 17 18 18 19 19 20 19
43 43 41 42 46 50 43 38 36 30 30 27 27 28 27 26 25 23 20 19 17 17 17 15 16 16 16 15 15 18 16 18 20 21 21 21 22 22
46 42 42 43 49 53 43 41 42 36 32 31 28 28 27 26 24 22 21 19 18 17 16 16 16 18 17 16 16 18 19 20 22 23 23 23 24 24
47 43 39 43 45 49 49 41 42 42 37 33 31 29 28 27 25 23 22 21 20 18 18 17 19 19 19 18 16 19 19 20 24 25 26 26 26 27
36 36 42 48 43 44 46 42 42 43 41 38 34 31 30 28 26 25 24 24 22 21 21 21 21 22 23 26 21 22 25 24 27 29 29 29 30 30
35 37 41 43 46 46 42 39 42 41 41 40 37 33 31 29 28 27 28 27 27 26 26 26 25 26 27 31 29 28 29 31 33 34 34 34 37 34
36 36 31 30 35 46 42 36 40 41 40 38 37 35 32 31 30 30 31 32 31 30 29 31 33 32 35 35 35 32 35 35 36 37 36 39 43 41
28 27 28 29 31 42 33 34 38 39 38 37 36 35 32 30 31 32 34 35 35 34 35 36 38 38 38 38 39 39 41 42 50 47 46 47 47 43
28 26 28 29 28 30 32 35 38 37 37 35 35 32 33 32 33 37 38 38 39 39 39 43 44 41 43 42 40 44 47 52 52 47 48 46 41 40
30 30 32 34 33 32 32 33 34 34 32 32 32 33 34 36 36 36 38 41 42 41 43 47 47 46 44 51 52 52 53 51 42 40 38 37 38 38
29 31 31 29 30 31 32 32 32 31 30 32 32 33 34 35 37 39 39 42 43 43 42 45 42 41 40 39 37 37 37 37 36 36 37 37 37 36
30 31 31 31 33 32 29 28 28 26 26 28 31 35 39 41 39 36 34 36 40 35 32 35 35 32 34 32 30 30 30 30 30 30 30 32 32 32
24 23 24 23 25 26 27 28 28 30 32 32 33 33 38 38 32 29 29 29 30 28 28 30 28 27 29 29 27 29 30 31 31 30 30 29 27 28
22 23 23 23 25 24 23 25 29 29 25 22 30 30 28 25 22 27 26 26 22 25 29 29 30 29 33 32 28 31 33 32 30 30 27 26 26 26
34 38 43 40 29 30 29 28 24 23 29 25 18 22 25 29 29 32 25 21 26 29 31 30 30 29 29 30 32 33 28 25 24 25 26 26 26 27
26 26 15 21 22 20 21 26 22 26 22 21 25 23 26 25 25 25 25 26 26 29 32 29 27 27 28 31 30 26 26 25 27 28 28 28 29 29
18 11 15 15 14 20 21 21 25 23 24 24 24 24 23 25 26 27 28 29 26 28 28 29 26 27 28 29 30 27 27 28 28 29 29 30 30 30
20 23 22 21 23 25 25 22 22 23 24 26 28 28 28 28 28 28 30 32 33 32 29 28 28 27 27 27 28 28 30 31 30 31 31 32 31 32
22 22 21 21 20 23 26 27 28 25 24 24 27 26 27 28 25 22 23 23 24 26 27 27 27 26 27 29 30 30 32 33 34 35 35 35 35 32
21 20 20 19 19 20 19 19 18 18 19 21 23 24 22 20 25 25 26 24 24 26 27 26 28 29 30 31 30 28 31 33 34 34 34 35 34 34
20 19 18 17 16 16 16 17 17 18 19 19 19 18 20 22 21 23 25 27 26 24 24 24 24 26 27 27 28 27 27 30 31 32 32 33 33 33
21 19 18 17 16 16 17 17 18 18 18 18 18 18 19 19 20 20 20 19 19 19 19 20 21 22 24 25 27 29 30 31 33 35 36 36 38 39
20 19 18 18 19 19 20 20 19 18 18 18 17 16 16 15 15 15 15 16 17 19 21 23 25 27 29 31 33 35 36 37 38 38 38 40 41 41
Wind_Direction
259 250 247 243 240 238 228 220 224 223 225 226 228 231 235 239 242 244 246 250 254 260 264 270 275 280 283 286 290 293 298 298 300 300 301 300 299 298
252 246 240 230 228 248 231 225 222 220 221 220 221 226 230 234 238 242 244 248 249 258 262 267 274 279 279 283 289 292 296 296 297 297 296 296 296 295
246 227 232 228 229 228 236 228 225 221 220 219 220 223 227 232 236 241 245 247 249 251 257 265 269 272 276 282 288 290 296 298 299 298 297 296 294 292
234 227 236 230 229 231 227 229 228 224 225 225 222 224 228 233 237 241 242 246 250 254 260 264 270 277 278 281 290 289 287 293 296 297 297 295 294 293
222 227 232 229 225 231 231 224 229 230 228 231 231 228 233 234 238 242 245 250 255 259 263 265 269 269 274 280 288 289 284 289 292 293 294 293 291 289
222 227 239 230 226 228 231 229 229 232 231 235 235 233 236 239 242 246 251 255 258 262 267 272 273 272 276 277 278 281 288 290 291 294 291 293 293 285
225 234 226 232 237 228 226 227 232 233 234 235 237 239 237 241 246 249 254 258 262 266 269 276 275 277 277 279 281 284 284 284 287 290 289 291 289 280
230 228 232 233 230 228 224 229 233 235 236 238 239 242 244 245 250 253 257 262 263 266 271 272 273 276 278 281 283 281 282 282 290 286 283 289 288 282
228 229 225 232 237 234 232 233 235 236 238 240 243 246 247 248 250 255 258 264 268 270 275 274 272 274 277 277 278 281 281 288 291 286 285 285 283 284
225 224 223 221 229 232 235 235 237 239 242 244 247 248 249 252 255 260 265 269 270 272 273 274 277 276 276 284 282 283 283 285 284 285 285 283 285 282
230 226 226 224 226 227 229 230 233 238 241 246 251 256 262 263 267 269 270 272 271 272 275 282 284 280 279 278 280 282 283 284 285 284 282 281 281 279
222 220 222 221 224 225 228 233 238 242 249 254 264 266 264 263 267 272 272 273 273 273 273 274 278 279 280 279 279 279 276 278 278 278 277 275 273 274
228 230 231 234 236 238 236 243 249 254 260 259 262 259 259 270 257 257 264 270 270 274 276 279 278 281 275 282 279 276 275 280 281 279 278 274 271 270
226 239 240 242 246 247 253 250 240 236 241 246 252 254 245 249 258 270 273 277 281 278 277 273 272 271 272 278 286 281 282 283 279 280 278 276 277 281
234 229 241 242 219 223 224 231 223 231 240 236 247 248 255 264 268 269 266 263 268 275 282 283 278 274 274 276 277 281 283 283 283 281 281 282 281 281
221 216 218 202 214 210 234 236 232 237 247 236 251 250 258 269 267 260 265 268 269 271 277 284 274 274 275 275 278 280 281 283 283 285 283 282 281 282
200 211 219 213 225 210 220 239 254 259 250 259 253 261 260 255 255 261 264 273 276 269 273 288 271 270 272 274 277 276 280 285 285 284 283 281 282 283
226 232 230 232 236 240 245 246 247 246 257 248 254 262 263 259 258 258 260 261 261 267 273 272 272 272 272 271 274 281 284 284 285 287 289 286 284 284
228 232 239 237 239 242 246 249 252 257 254 253 256 261 260 262 270 269 272 267 263 269 270 271 275 273 276 278 279 278 281 283 285 286 285 286 287 285
235 237 241 246 250 250 249 251 255 258 263 265 268 269 270 257 258 272 261 268 277 278 281 274 275 278 280 283 284 284 280 281 283 285 286 287 289 288
229 234 236 236 237 240 244 250 256 262 266 267 269 269 264 269 269 270 270 274 278 281 283 285 285 286 287 288 288 288 286 288 289 289 290 290 290 289
223 226 229 233 237 242 248 254 260 264 265 264 263 264 266 268 270 272 274 277 280 283 284 285 286 288 289 290 291 291 290 290 290 291 291 291 290 289
222 229 237 242 248 251 254 255 258 260 262 265 266 265 264 265 267 269 274 278 283 285 287 289 289 289 289 289 289 289 288 287 286 286 287 287 287 287
Height
3113 3115 3119 3126 3131 3133 3139 3141 3144 3147 3150 3152 3156 3159 3163 3166 3168 3169 3172 3174 3175 3177 3177 3178 3178 3179 3179 3177 3177 3177 3178 3178 3178 3177 3177 3176 3176 3175
3104 3107 3111 3116 3121 3128 3132 3136 3138 3141 3144 3147 3150 3154 3157 3160 3163 3165 3167 3169 3170 3172 3173 3172 3174 3175 3175 3174 3174 3174 3173 3173 3173 3172 3172 3171 3171 3171
3091 3096 3101 3107 3112 3121 3125 3128 3132 3135 3138 3141 3145 3148 3151 3154 3157 3160 3163 3164 3166 3167 3168 3169 3169 3170 3171 3170 3169 3170 3170 3169 3169 3168 3167 3166 3166 3165
3080 3088 3094 3098 3101 3108 3114 3120 3126 3129 3133 3136 3139 3142 3145 3149 3152 3155 3158 3159 3161 3162 3164 3164 3165 3165 3166 3166 3164 3165 3164 3163 3164 3163 3162 3161 3160 3160
3074 3081 3087 3089 3094 3099 3105 3112 3119 3122 3127 3130 3133 3138 3140 3144 3147 3150 3152 3154 3156 3158 3158 3159 3160 3160 3161 3162 3159 3159 3159 3157 3158 3157 3156 3155 3154 3153
3068 3073 3076 3081 3086 3093 3099 3105 3112 3116 3120 3124 3127 3132 3136 3139 3142 3145 3146 3148 3149 3151 3153 3154 3154 3154 3154 3155 3153 3153 3152 3151 3151 3150 3149 3148 3147 3145
3063 3067 3070 3076 3082 3089 3094 3098 3105 3109 3114 3118 3121 3125 3131 3134 3136 3138 3140 3140 3143 3144 3146 3147 3147 3148 3148 3147 3147 3146 3145 3144 3143 3142 3141 3140 3138 3135
3058 3062 3066 3071 3077 3084 3085 3091 3098 3103 3107 3111 3116 3120 3125 3128 3129 3130 3132 3132 3136 3137 3136 3139 3138 3138 3139 3139 3138 3137 3135 3134 3134 3133 3131 3129 3128 3125
3053 3057 3062 3068 3072 3077 3082 3087 3092 3096 3101 3106 3110 3115 3117 3120 3121 3122 3123 3124 3126 3128 3128 3130 3130 3130 3128 3128 3127 3125 3124 3123 3122 3121 3120 3118 3117 3117
3048 3053 3058 3063 3068 3072 3076 3081 3087 3091 3096 3100 3103 3107 3109 3110 3112 3113 3115 3116 3116 3118 3118 3116 3118 3119 3116 3116 3116 3114 3112 3111 3110 3110 3109 3108 3108 3106
3045 3050 3053 3058 3063 3067 3071 3075 3080 3084 3087 3091 3095 3098 3100 3102 3103 3104 3105 3105 3104 3107 3106 3103 3105 3104 3104 3104 3104 3103 3102 3102 3101 3100 3099 3097 3096 3095
3040 3045 3048 3052 3056 3060 3064 3068 3074 3080 3082 3084 3087 3089 3091 3093 3093 3094 3095 3095 3094 3096 3098 3095 3095 3095 3093 3095 3094 3093 3092 3092 3091 3089 3088 3087 3086 3084
3034 3038 3043 3048 3052 3056 3061 3065 3068 3070 3074 3076 3078 3080 3082 3083 3085 3086 3086 3086 3086 3087 3087 3086 3086 3086 3084 3084 3085 3085 3084 3083 3082 3081 3080 3078 3076 3075
3030 3034 3038 3042 3046 3049 3053 3057 3060 3063 3065 3068 3070 3073 3075 3075 3077 3078 3078 3079 3080 3081 3080 3079 3078 3078 3077 3076 3076 3077 3075 3074 3074 3073 3072 3071 3070 3069
3023 3028 3031 3036 3041 3043 3047 3050 3053 3056 3059 3060 3063 3066 3068 3069 3070 3071 3072 3072 3073 3073 3072 3070 3069 3069 3069 3068 3068 3068 3067 3066 3065 3065 3065 3065 3063 3062
3017 3021 3025 3028 3033 3037 3040 3042 3046 3049 3052 3055 3057 3058 3061 3062 3063 3063 3064 3065 3065 3065 3064 3062 3061 3061 3061 3060 3060 3061 3060 3060 3059 3058 3057 3057 3056 3054
3013 3018 3021 3025 3028 3031 3035 3039 3041 3043 3047 3049 3051 3052 3054 3055 3055 3055 3056 3057 3057 3057 3056 3055 3054 3054 3054 3053 3054 3054 3053 3053 3051 3049 3049 3048 3047 3046
3012 3016 3019 3022 3025 3027 3030 3033 3035 3038 3040 3042 3044 3045 3046 3048 3048 3048 3049 3049 3049 3049 3048 3048 3047 3047 3047 3047 3046 3046 3045 3044 3042 3041 3040 3038 3039 3038
3007 3011 3013 3017 3020 3022 3025 3028 3030 3031 3033 3035 3037 3038 3039 3040 3039 3040 3039 3040 3041 3041 3041 3040 3040 3039 3039 3039 3038 3038 3037 3035 3034 3033 3031 3030 3028 3029
3003 3007 3010 3011 3014 3016 3019 3021 3023 3025 3027 3028 3029 3030 3030 3032 3033 3033 3034 3034 3034 3033 3033 3032 3032 3032 3031 3030 3030 3031 3028 3026 3025 3025 3024 3022 3020 3018
2998 3000 3003 3006 3008 3011 3013 3015 3017 3019 3020 3021 3023 3023 3024 3025 3026 3027 3027 3027 3027 3027 3026 3026 3025 3025 3024 3022 3022 3022 3020 3018 3016 3015 3013 3011 3010 3009
2991 2994 2997 2999 3002 3005 3007 3009 3010 3012 3013 3015 3017 3018 3019 3019 3020 3020 3020 3021 3021 3020 3020 3020 3019 3018 3017 3015 3014 3013 3012 3010 3008 3005 3004 3002 3000 2997
2986 2989 2991 2994 2997 2999 3001 3003 3004 3006 3007 3009 3011 3012 3013 3013 3014 3014 3015 3015 3015 3014 3014 3013 3012 3011 3009 3008 3006 3004 3002 3001 2998 2996 2994 2990 2988 2985